Content
SEND FEEDBACK

Daily
Averages
Monthly
Summary
United States of America

BLACK HAWK, SOUTH DAKOTA


Home > North America > United States > South Dakota
Elevation: 3352 feet     Latitude: 44 05N     Longitude: 103 16W

WEATHER
 
SELECT A DAY
Number of Records: 207,831;   Date Range: 1/1/95 - 10/24/14
 
SHARE

PRINT THIS DATA

[ ← Previous Day ]
WEATHER ALMANAC - MAY 25, 2013
[ Next Day → ]
[ °C ]   °F
Weather ElementAverageHighLow
Temperature70 °F83.1 °F (3:58 pm)50.5 °F (4:58 am)
Dewpoint55.5 °F59.2 °F (2:58 pm)46.2 °F (4:58 am)
Humidity62.1 %85 % (4:58 am)40 % (3:58 pm)
Barometer29.85 in29.94 in (6:58 am)29.75 in (5:58 pm)
Wind Speed11.6 mph19.6 mph (4:58 pm)
Wind Gust29.9 mph (4:58 pm)
Weather ElementAverage
Visibility10 mi
Wind DirectionSSE (165 °)

Weather ElementTotal
Precipitation---
Cooling Degree Days1.8 (Base 65)
Growing Degree Days16.8 (Base 50)
Averaged from 28 records on May 25, 2013
WEATHER CONDITIONS BREAKOUT
WIND DIRECTION BREAKOUT
WEATHER BY HOUR - MAY 25, 2013
[ °C ]   °F
Local TimeTemperatureDewpointHumidityBarometerVisibilityWind DirectionWind SpeedGust SpeedPrecipitationEventsConditions
1:58 AM54.3 °F48.6 °F81 %29.89 in10.0 miNW (320°)8.1 mphClear
2:58 AM53.8 °F47.7 °F80 %29.89 in10.0 miNNW (330°)8.1 mphClear
3:58 AM55.2 °F48.4 °F78 %29.90 in10.0 miNNW (340°)4.6 mphClear
4:58 AM50.5 °F46.2 °F85 %29.92 in10.0 miNW (310°)4.6 mphClear
5:58 AM53.8 °F46.9 °F78 %29.93 in10.0 miVariable2.3 mphClear
6:58 AM56.5 °F51.4 °F83 %29.94 in10.0 miNW (310°)3.5 mphPartly Cloudy
7:58 AM61.0 °F52.7 °F74 %29.94 in10.0 miSSW (200°)2.3 mphClear
8:58 AM66.2 °F55.8 °F69 %29.92 in10.0 miVariable3.5 mphClear
9:58 AM70.9 °F57.9 °F63 %29.89 in10.0 miSSE (160°)13.8 mphClear
10:58 AM72.5 °F59.0 °F62 %29.88 in10.0 miSSE (150°)13.8 mph23.0 mphClear
11:58 AM75.0 °F57.7 °F55 %29.89 in10.0 miSouth (170°)15.0 mphPartly Cloudy
12:58 PM75.9 °F57.2 °F52 %29.87 in10.0 miSSE (150°)13.8 mph21.9 mphScattered Clouds
1:58 PM78.1 °F57.9 °F50 %29.85 in10.0 miSE (140°)15.0 mphScattered Clouds
2:44 PM80.6 °F59.0 °F48 %29.88 in10.0 miSouth (180°)13.8 mph19.6 mphScattered Clouds
2:50 PM80.6 °F59.0 °F48 %29.88 in10.0 miSE (140°)13.8 mphPartly Cloudy
2:58 PM80.1 °F59.2 °F49 %29.82 in10.0 miSSE (150°)15.0 mphPartly Cloudy
3:31 PM82.4 °F57.2 °F42 %29.83 in10.0 miSouth (170°)16.1 mph21.9 mphScattered Clouds
3:58 PM83.1 °F56.7 °F40 %29.78 in10.0 miSSE (150°)17.3 mph24.2 mphMostly Cloudy
4:58 PM81.7 °F56.5 °F42 %29.77 in10.0 miSSE (150°)19.6 mph29.9 mphPartly Cloudy
5:57 PM77.0 °F55.4 °F47 %29.80 in10.0 miSE (140°)16.1 mph25.3 mphThunderstormThunderstorm
5:58 PM77.0 °F55.4 °F47 %29.75 in10.0 miSE (140°)16.1 mph25.3 mphThunderstormThunderstorm
6:12 PM77.0 °F57.2 °F50 %29.81 in10.0 miSE (140°)17.3 mphThunderstormMostly Cloudy
6:58 PM75.9 °F57.6 °F53 %29.78 in10.0 miESE (120°)13.8 mphThunderstormClear
7:58 PM73.4 °F58.6 °F60 %29.78 in10.0 miEast (80°)18.4 mph21.9 mphMostly Cloudy
8:58 PM69.8 °F58.6 °F68 %29.78 in10.0 miESE (120°)18.4 mphClear
9:58 PM67.6 °F59.0 °F74 %29.76 in10.0 miESE (120°)12.7 mphClear
10:58 PM65.1 °F58.8 °F80 %29.78 in10.0 miSSE (150°)4.6 mphClear
11:58 PM64.8 °F58.6 °F81 %29.78 in10.0 miEast (90°)4.6 mphClear
Hourly data recorded from KRCA, located miles away from Black Hawk, South Dakota







STORIES FROM OUR PARTNERS